| time (UTC) | temp F | wind direction | speed MPH | gust MPH | rain 1hr in | rain 24hr in | rain mn in | humidity % | barometer mb |
| 20260507024414 | 54 | 0 | 0.0 | 0.0 | 0.00 | 0.00 | 0.00 | 75 | 1003.9 |
| 20260507023514 | 54 | 0 | 0.0 | 0.0 | 0.00 | 0.00 | 0.00 | 74 | 1004.0 |
| 20260507022614 | 54 | 0 | 0.0 | 0.0 | 0.00 | 0.00 | 0.00 | 74 | 1004.0 |
| 20260507021714 | 54 | 0 | 0.0 | 0.0 | 0.00 | 0.00 | 0.00 | 74 | 1004.1 |
| 20260507020815 | 55 | 0 | 0.0 | 0.0 | 0.00 | 0.00 | 0.00 | 71 | 1004.0 |
| 20260507015915 | 55 | 0 | 0.0 | 0.0 | 0.00 | 0.00 | 0.00 | 71 | 1004.2 |
| 20260507015013 | 55 | 0 | 0.0 | 0.0 | 0.00 | 0.00 | 0.00 | 71 | 1004.2 |
| 20260507014115 | 55 | 0 | 0.0 | 1.0 | 0.00 | 0.00 | 0.00 | 71 | 1004.3 |
| 20260507013215 | 55 | 0 | 0.0 | 0.0 | 0.00 | 0.00 | 0.00 | 71 | 1004.4 |
| 20260507012315 | 55 | 0 | 0.0 | 1.0 | 0.00 | 0.00 | 0.00 | 71 | 1004.5 |
| 20260507011415 | 55 | 0 | 0.0 | 0.0 | 0.00 | 0.00 | 0.00 | 70 | 1004.6 |
| 20260507010514 | 55 | 0 | 0.0 | 1.0 | 0.00 | 0.00 | 0.00 | 70 | 1004.7 |
| 20260507005615 | 56 | 0 | 0.0 | 0.0 | 0.00 | 0.00 | 0.00 | 70 | 1004.8 |
| 20260507004715 | 56 | 0 | 0.0 | 0.0 | 0.00 | 0.00 | 0.00 | 70 | 1004.6 |
| 20260507003815 | 56 | 0 | 0.0 | 0.0 | 0.00 | 0.00 | 0.00 | 70 | 1004.8 |
| 20260507002915 | 56 | 0 | 0.0 | 0.0 | 0.00 | 0.00 | 0.00 | 70 | 1004.6 |
| 20260507002014 | 57 | 0 | 0.0 | 0.0 | 0.00 | 0.00 | 0.00 | 69 | 1004.9 |
| 20260507001114 | 57 | 0 | 0.0 | 0.0 | 0.00 | 0.00 | 0.00 | 69 | 1004.8 |
| 20260507000214 | 57 | 0 | 0.0 | 0.0 | 0.00 | 0.00 | 0.00 | 68 | 1004.8 |
| 20260506235314 | 57 | 0 | 0.0 | 0.0 | 0.00 | 0.00 | 0.00 | 68 | 1005.1 |
| 20260506234415 | 57 | 0 | 0.0 | 0.0 | 0.00 | 0.00 | 0.00 | 67 | 1005.2 |
| 20260506233515 | 57 | 0 | 0.0 | 0.0 | 0.00 | 0.00 | 0.00 | 67 | 1005.1 |
| 20260506232614 | 58 | 0 | 0.0 | 0.0 | 0.00 | 0.00 | 0.00 | 66 | 1005.3 |
| 20260506231715 | 58 | 0 | 0.0 | 1.0 | 0.00 | 0.00 | 0.00 | 65 | 1005.3 |
| 20260506230814 | 58 | 0 | 0.0 | 1.0 | 0.00 | 0.00 | 0.00 | 65 | 1005.2 |
| 20260506225914 | 58 | 0 | 1.0 | 1.0 | 0.00 | 0.00 | 0.00 | 65 | 1005.5 |
| 20260506225014 | 58 | 0 | 1.0 | 1.0 | 0.00 | 0.00 | 0.00 | 65 | 1005.4 |
| 20260506224115 | 58 | 0 | 0.0 | 1.0 | 0.00 | 0.00 | 0.00 | 65 | 1005.6 |
| 20260506223215 | 59 | 0 | 1.0 | 3.0 | 0.00 | 0.00 | 0.00 | 65 | 1005.6 |
| 20260506222314 | 59 | 0 | 0.0 | 1.0 | 0.00 | 0.00 | 0.00 | 65 | 1005.5 |
| 20260506221415 | 59 | 0 | 2.0 | 3.0 | 0.00 | 0.00 | 0.00 | 65 | 1005.4 |
| 20260506220515 | 60 | 0 | 0.0 | 0.0 | 0.00 | 0.00 | 0.00 | 64 | 1005.8 |
| 20260506215615 | 60 | 0 | 0.0 | 0.0 | 0.00 | 0.00 | 0.00 | 64 | 1005.7 |
| 20260506214714 | 60 | 0 | 0.0 | 1.0 | 0.00 | 0.00 | 0.00 | 64 | 1005.9 |
| 20260506213814 | 60 | 0 | 0.0 | 1.0 | 0.00 | 0.00 | 0.00 | 63 | 1005.8 |
| 20260506212914 | 60 | 0 | 0.0 | 0.0 | 0.00 | 0.00 | 0.00 | 64 | 1005.7 |
| 20260506212013 | 60 | 0 | 0.0 | 1.0 | 0.00 | 0.00 | 0.00 | 63 | 1005.9 |
| 20260506211115 | 60 | 0 | 0.0 | 1.0 | 0.00 | 0.00 | 0.00 | 63 | 1005.9 |
| 20260506210214 | 61 | 0 | 0.0 | 1.0 | 0.00 | 0.00 | 0.00 | 63 | 1005.9 |
| 20260506205315 | 61 | 0 | 0.0 | 0.0 | 0.00 | 0.00 | 0.00 | 63 | 1005.8 |
| 20260506204414 | 61 | 0 | 0.0 | 0.0 | 0.00 | 0.00 | 0.00 | 62 | 1006.0 |
| 20260506203514 | 61 | 0 | 0.0 | 0.0 | 0.00 | 0.00 | 0.00 | 62 | 1005.7 |
| 20260506202615 | 61 | 0 | 0.0 | 1.0 | 0.00 | 0.00 | 0.00 | 62 | 1005.8 |
| 20260506201714 | 61 | 0 | 0.0 | 0.0 | 0.00 | 0.00 | 0.00 | 62 | 1005.7 |
| 20260506200814 | 62 | 0 | 0.0 | 1.0 | 0.00 | 0.00 | 0.00 | 62 | 1005.6 |
| 20260506195913 | 62 | 0 | 0.0 | 0.0 | 0.00 | 0.00 | 0.00 | 61 | 1005.8 |
| 20260506195014 | 62 | 0 | 0.0 | 1.0 | 0.00 | 0.00 | 0.00 | 61 | 1005.9 |
| 20260506194114 | 62 | 0 | 0.0 | 1.0 | 0.00 | 0.00 | 0.00 | 60 | 1005.7 |
| 20260506193214 | 62 | 0 | 0.0 | 1.0 | 0.00 | 0.00 | 0.00 | 60 | 1005.7 |
| 20260506192314 | 62 | 0 | 0.0 | 0.0 | 0.00 | 0.00 | 0.00 | 60 | 1005.6 |
| 20260506191415 | 62 | 0 | 0.0 | 0.0 | 0.00 | 0.00 | 0.00 | 59 | 1005.8 |
| 20260506190514 | 63 | 0 | 0.0 | 0.0 | 0.00 | 0.00 | 0.00 | 59 | 1005.8 |
| 20260506185614 | 63 | 0 | 0.0 | 0.0 | 0.00 | 0.00 | 0.00 | 58 | 1005.9 |
| 20260506184715 | 63 | 0 | 0.0 | 1.0 | 0.00 | 0.00 | 0.00 | 59 | 1005.7 |
| 20260506183815 | 63 | 0 | 0.0 | 1.0 | 0.00 | 0.00 | 0.00 | 58 | 1005.7 |
| 20260506182915 | 63 | 0 | 0.0 | 0.0 | 0.00 | 0.00 | 0.00 | 58 | 1005.6 |
| 20260506182015 | 63 | 0 | 0.0 | 1.0 | 0.00 | 0.00 | 0.00 | 56 | 1005.7 |
| 20260506181114 | 63 | 0 | 0.0 | 1.0 | 0.00 | 0.00 | 0.00 | 55 | 1005.8 |
| 20260506180214 | 64 | 0 | 0.0 | 3.0 | 0.00 | 0.00 | 0.00 | 51 | 1005.8 |
| 20260506175315 | 64 | 0 | 0.0 | 1.0 | 0.00 | 0.00 | 0.00 | 51 | 1005.6 |
| 20260506174414 | 64 | 0 | 0.0 | 2.0 | 0.00 | 0.00 | 0.00 | 52 | 1005.7 |
| 20260506173515 | 65 | 0 | 1.0 | 3.0 | 0.00 | 0.00 | 0.00 | 54 | 1005.7 |
| 20260506172614 | 65 | 22 | 1.0 | 1.0 | 0.00 | 0.00 | 0.00 | 52 | 1005.6 |
| 20260506171714 | 66 | 0 | 0.0 | 1.0 | 0.00 | 0.00 | 0.00 | 52 | 1005.8 |
| 20260506170814 | 66 | 0 | 0.0 | 1.0 | 0.00 | 0.00 | 0.00 | 52 | 1005.6 |
| 20260506165914 | 67 | 0 | 0.0 | 1.0 | 0.00 | 0.00 | 0.00 | 51 | 1005.9 |
| 20260506165015 | 68 | 0 | 2.0 | 3.0 | 0.00 | 0.00 | 0.00 | 50 | 1005.9 |
| 20260506164114 | 70 | 0 | 0.0 | 1.0 | 0.00 | 0.00 | 0.00 | 46 | 1005.9 |
| 20260506163214 | 72 | 0 | 1.0 | 3.0 | 0.00 | 0.00 | 0.00 | 42 | 1005.9 |
| 20260506162314 | 73 | 0 | 1.0 | 2.0 | 0.00 | 0.00 | 0.00 | 40 | 1006.0 |
| 20260506161415 | 72 | 0 | 0.0 | 1.0 | 0.00 | 0.00 | 0.00 | 45 | 1006.1 |
| 20260506160514 | 71 | 0 | 0.0 | 2.0 | 0.00 | 0.00 | 0.00 | 47 | 1006.2 |
| 20260506155615 | 68 | 0 | 0.0 | 1.0 | 0.00 | 0.00 | 0.00 | 49 | 1006.2 |
| 20260506154714 | 68 | 0 | 1.0 | 2.0 | 0.00 | 0.00 | 0.00 | 47 | 1006.3 |
| 20260506153815 | 70 | 0 | 1.0 | 3.0 | 0.00 | 0.00 | 0.00 | 46 | 1006.4 |
| 20260506152914 | 70 | 0 | 1.0 | 2.0 | 0.00 | 0.00 | 0.00 | 48 | 1006.5 |
| 20260506152015 | 67 | 0 | 0.0 | 1.0 | 0.00 | 0.00 | 0.00 | 50 | 1006.7 |
| 20260506151115 | 67 | 0 | 1.0 | 3.0 | 0.00 | 0.00 | 0.00 | 49 | 1007.0 |
| 20260506150215 | 67 | 0 | 1.0 | 2.0 | 0.00 | 0.00 | 0.00 | 52 | 1006.8 |
| 20260506145314 | 65 | 0 | 1.0 | 2.0 | 0.00 | 0.00 | 0.00 | 55 | 1007.1 |
| 20260506144415 | 64 | 0 | 1.0 | 2.0 | 0.00 | 0.00 | 0.00 | 58 | 1007.1 |
| 20260506143514 | 63 | 0 | 1.0 | 2.0 | 0.00 | 0.00 | 0.00 | 62 | 1007.2 |
| 20260506142615 | 64 | 0 | 1.0 | 1.0 | 0.00 | 0.00 | 0.00 | 60 | 1007.4 |
| 20260506141714 | 64 | 0 | 1.0 | 2.0 | 0.00 | 0.00 | 0.00 | 56 | 1007.6 |
| 20260506140814 | 64 | 0 | 0.0 | 2.0 | 0.00 | 0.00 | 0.00 | 56 | 1007.6 |
| 20260506135914 | 65 | 0 | 1.0 | 3.0 | 0.00 | 0.00 | 0.00 | 55 | 1007.7 |
| 20260506135015 | 65 | 0 | 0.0 | 1.0 | 0.00 | 0.00 | 0.00 | 58 | 1007.7 |
| 20260506134114 | 65 | 0 | 1.0 | 2.0 | 0.00 | 0.00 | 0.00 | 56 | 1007.8 |
| 20260506133214 | 66 | 0 | 1.0 | 3.0 | 0.00 | 0.00 | 0.00 | 55 | 1007.7 |
| 20260506132313 | 66 | 0 | 1.0 | 2.0 | 0.00 | 0.00 | 0.00 | 54 | 1007.9 |
| 20260506131414 | 67 | 0 | 0.0 | 2.0 | 0.00 | 0.00 | 0.00 | 51 | 1007.6 |
| 20260506130514 | 69 | 0 | 2.0 | 3.0 | 0.00 | 0.00 | 0.00 | 50 | 1007.7 |
| 20260506125615 | 69 | 0 | 1.0 | 2.0 | 0.00 | 0.00 | 0.00 | 50 | 1007.6 |
| 20260506124714 | 69 | 0 | 1.0 | 1.0 | 0.00 | 0.00 | 0.00 | 51 | 1007.6 |
| 20260506123814 | 68 | 0 | 1.0 | 1.0 | 0.00 | 0.00 | 0.00 | 51 | 1007.6 |
| 20260506122914 | 67 | 0 | 0.0 | 1.0 | 0.00 | 0.00 | 0.00 | 49 | 1007.8 |
| 20260506122015 | 66 | 0 | 1.0 | 1.0 | 0.00 | 0.00 | 0.00 | 48 | 1007.9 |
| 20260506121114 | 67 | 0 | 0.0 | 1.0 | 0.00 | 0.00 | 0.00 | 46 | 1008.0 |
| 20260506120214 | 68 | 0 | 1.0 | 3.0 | 0.00 | 0.00 | 0.00 | 46 | 1008.1 |
| 20260506115315 | 67 | 0 | 1.0 | 2.0 | 0.00 | 0.00 | 0.00 | 48 | 1008.0 |
| 20260506114413 | 67 | 0 | 1.0 | 2.0 | 0.00 | 0.00 | 0.00 | 47 | 1008.2 |
| 20260506113514 | 67 | 0 | 0.0 | 1.0 | 0.00 | 0.00 | 0.00 | 46 | 1008.3 |
| 20260506112613 | 66 | 0 | 0.0 | 3.0 | 0.00 | 0.00 | 0.00 | 47 | 1008.4 |
| 20260506111713 | 65 | 0 | 1.0 | 1.0 | 0.00 | 0.00 | 0.00 | 48 | 1008.4 |
| 20260506110814 | 65 | 0 | 1.0 | 1.0 | 0.00 | 0.00 | 0.00 | 48 | 1008.5 |
| 20260506105915 | 65 | 0 | 0.0 | 2.0 | 0.00 | 0.00 | 0.00 | 47 | 1008.4 |
| 20260506105015 | 65 | 0 | 1.0 | 3.0 | 0.00 | 0.00 | 0.00 | 49 | 1008.6 |
| 20260506104114 | 65 | 0 | 2.0 | 3.0 | 0.00 | 0.00 | 0.00 | 49 | 1008.8 |
| 20260506103214 | 65 | 0 | 0.0 | 1.0 | 0.00 | 0.00 | 0.00 | 51 | 1008.7 |
| 20260506102314 | 64 | 0 | 1.0 | 2.0 | 0.00 | 0.00 | 0.00 | 51 | 1008.7 |
| 20260506101413 | 64 | 0 | 0.0 | 1.0 | 0.00 | 0.00 | 0.00 | 50 | 1008.6 |
| 20260506100514 | 64 | 0 | 1.0 | 2.0 | 0.00 | 0.00 | 0.00 | 50 | 1008.7 |
| 20260506095613 | 63 | 0 | 1.0 | 2.0 | 0.00 | 0.00 | 0.00 | 53 | 1008.6 |
| 20260506094713 | 62 | 0 | 1.0 | 1.0 | 0.00 | 0.00 | 0.00 | 53 | 1008.9 |
| 20260506093814 | 63 | 0 | 1.0 | 3.0 | 0.00 | 0.00 | 0.00 | 53 | 1008.8 |
| 20260506092914 | 62 | 0 | 0.0 | 1.0 | 0.00 | 0.00 | 0.00 | 54 | 1008.7 |
| 20260506092014 | 62 | 0 | 1.0 | 2.0 | 0.00 | 0.00 | 0.00 | 55 | 1009.0 |
| 20260506091114 | 62 | 0 | 1.0 | 2.0 | 0.00 | 0.00 | 0.00 | 55 | 1008.8 |
| 20260506090213 | 62 | 0 | 0.0 | 1.0 | 0.00 | 0.00 | 0.00 | 60 | 1009.0 |
| 20260506085314 | 62 | 0 | 0.0 | 0.0 | 0.00 | 0.00 | 0.00 | 61 | 1008.9 |
| 20260506084414 | 61 | 0 | 0.0 | 1.0 | 0.00 | 0.00 | 0.00 | 61 | 1009.0 |
| 20260506083515 | 61 | 0 | 0.0 | 1.0 | 0.00 | 0.00 | 0.00 | 62 | 1008.9 |
| 20260506082614 | 60 | 0 | 0.0 | 1.0 | 0.00 | 0.01 | 0.00 | 63 | 1008.8 |
| 20260506081715 | 60 | 0 | 0.0 | 0.0 | 0.00 | 0.01 | 0.00 | 66 | 1008.8 |
| 20260506080814 | 59 | 0 | 0.0 | 1.0 | 0.00 | 0.01 | 0.00 | 67 | 1008.7 |
| 20260506073214 | 57 | 0 | 0.0 | 1.0 | 0.00 | 0.06 | 0.00 | 70 | 1008.8 |
| 20260506072314 | 57 | 0 | 0.0 | 1.0 | 0.00 | 0.11 | 0.00 | 71 | 1009.0 |
| 20260506071415 | 56 | 0 | 0.0 | 0.0 | 0.00 | 0.13 | 0.00 | 72 | 1008.8 |
| 20260506070514 | 56 | 0 | 0.0 | 0.0 | 0.00 | 0.13 | 0.00 | 72 | 1009.0 |
| 20260506062015 | 54 | 0 | 0.0 | 0.0 | 0.00 | 0.15 | 0.00 | 76 | 1008.6 |
| 20260506061115 | 54 | 0 | 0.0 | 1.0 | 0.00 | 0.15 | 0.00 | 76 | 1008.4 |
| 20260506060215 | 54 | 0 | 0.0 | 1.0 | 0.00 | 0.17 | 0.00 | 77 | 1008.6 |
| 20260506050815 | 55 | 0 | 0.0 | 0.0 | 0.00 | 0.25 | 0.00 | 73 | 1008.6 |
| 20260506045015 | 55 | 0 | 0.0 | 0.0 | 0.00 | 0.30 | 0.00 | 73 | 1008.5 |
| 20260506044115 | 55 | 0 | 0.0 | 1.0 | 0.00 | 0.31 | 0.00 | 73 | 1008.5 |
| 20260506043214 | 55 | 0 | 0.0 | 0.0 | 0.00 | 0.32 | 0.00 | 73 | 1008.5 |
| 20260506042315 | 55 | 0 | 0.0 | 1.0 | 0.00 | 0.32 | 0.00 | 73 | 1008.5 |
| 20260506041415 | 55 | 0 | 0.0 | 0.0 | 0.00 | 0.32 | 0.00 | 73 | 1008.6 |
| 20260506040516 | 55 | 0 | 0.0 | 0.0 | 0.00 | 0.34 | 0.00 | 73 | 1008.6 |
| 20260506035615 | 56 | 0 | 0.0 | 1.0 | 0.00 | 0.34 | 0.00 | 73 | 1008.7 |
| 20260506034714 | 56 | 0 | 0.0 | 1.0 | 0.00 | 0.35 | 0.00 | 73 | 1008.6 |
| 20260506033815 | 56 | 0 | 0.0 | 0.0 | 0.00 | 0.37 | 0.00 | 73 | 1008.7 |
| 20260506032914 | 56 | 0 | 0.0 | 0.0 | 0.00 | 0.46 | 0.00 | 72 | 1008.8 |
| 20260506032015 | 56 | 0 | 0.0 | 0.0 | 0.00 | 0.46 | 0.00 | 72 | 1009.0 |
| 20260506031114 | 56 | 0 | 0.0 | 0.0 | 0.00 | 0.46 | 0.00 | 72 | 1008.8 |
| 20260506030214 | 56 | 0 | 0.0 | 0.0 | 0.00 | 0.47 | 0.00 | 72 | 1008.7 |
| 20260506025314 | 57 | 0 | 0.0 | 0.0 | 0.00 | 0.48 | 0.00 | 71 | 1008.6 |